Weather Roundup
Issued by NWS

Home | Current Version | Previous Version | Text Only | Print | Product List | Glossary On
Versions: 1 2 3 4 5 6 7 8 9 10 11 12 13 14 15 16 17 18 19 20 21 22 23 24 25 26 27 28 29 30 31 32 33 34 35 36 37 38 39 40 41 42 43 44 45 46 47 48 49 50
000
NZUS93 KARX 302359
HRRWXR

CURRENT HOURLY OBSERVATIONS ACROSS
MUCH OF THE UPPER MISSISSIPPI VALLEY
NATIONAL WEATHER SERVICE LA CROSSE WI
700 PM CDT THU OCT 30 2014


...SOUTHEAST MINNESOTA...


CITY           SKY/WX    TMP DP  RH WIND       PRES   REMARKS
ROCHESTER      CLOUDY    44  37  76 NW8       30.14R
ROCHESTER/MAYO CLOUDY    45  36  70 NW7G16    30.14R
WINONA         CLOUDY    46  37  71 NW5       30.12R
AUSTIN         CLOUDY    45  36  70 N6        30.14R
ALBERT LEA     CLOUDY    46  37  71 NW10G16   30.16R
DODGE CENTER   CLOUDY    45  37  76 N10       30.14R
PRESTON        CLOUDY    43  37  80 NW8       30.12R
OWATONNA       PTCLDY    46  36  66 NW21      30.17R
FARIBAULT      CLOUDY    45  36  70 NW13G25   30.19R
$$

...ELSEWHERE IN MINNESOTA...


CITY           SKY/WX    TMP DP  RH WIND       PRES   REMARKS
MINNEAPOLIS    CLOUDY    43  30  60 N17G29    30.20R
INTNL FALLS    PTCLDY    28  19  69 N14       30.32R WCI  17
DULUTH         LGT SNOW  34  25  69 NW10G28   30.17R WCI  26
RED WING       CLOUDY    45  34  65 N9G18     30.17R
REDWOOD FALLS  CLOUDY    41  30  65 N23G31    30.29R
MANKATO        CLOUDY    45  34  65 N16       30.21R
WORTHINGTON    CLOUDY    39  34  81 N28       30.28R WCI  28
FAIRMONT       CLOUDY    46  30  53 N25G31    30.21R
$$

...SOUTHWEST WISCONSIN...


CITY           SKY/WX    TMP DP  RH WIND       PRES   REMARKS
LA CROSSE      CLOUDY    45  38  76 CALM      30.09S
PRAIRIE DU CHI CLOUDY    47  38  69 NW3       30.09R
BOSCOBEL       CLOUDY    49  37  63 CALM      30.09S
LONE ROCK      NOT AVBL
PLATTEVILLE    MOCLDY    47  38  69 CALM      30.08S
FORT MC COY    CLOUDY    45  36  72 SW3       30.08S
CAMP DOUGLAS   CLOUDY    45  41  87 W7        30.06S
VIROQUA        CLOUDY    43  37  79 CALM      30.08R
WIS DELLS      CLOUDY    45  35  68 W3        30.06R
$$

...ELSEWHERE IN WISCONSIN...


CITY           SKY/WX    TMP DP  RH WIND       PRES   REMARKS
MILWAUKEE      MOCLDY    49  33  54 W6        30.05S
MADISON        CLOUDY    46  35  65 CALM      30.06R
GREEN BAY      CLOUDY    46  37  71 W6        30.02R
EAU CLAIRE     CLOUDY    43  30  61 NW10      30.13R
BLACK RVR FLS  CLOUDY    47  34  60 NW3       30.07R
MEDFORD        CLOUDY    39  33  78 NW9       30.06R WCI  33
WAUSAU         CLOUDY    42  33  70 NW13      30.04R
WIS RAPIDS     CLOUDY    45  34  65 NW8       30.07R
MARSHFIELD     CLOUDY    44  35  70 NW18G24   30.06R
RICE LAKE      CLOUDY    42  32  69 NW9       30.14R
$$

...NORTHEAST IOWA...


CITY           SKY/WX    TMP DP  RH WIND       PRES   REMARKS
DECORAH        CLOUDY    46  39  76 NW5       30.10R
MASON CITY     CLOUDY    47  37  68 NW13      30.16R
CHARLES CITY   CLOUDY    48  39  71 NW7       30.12R
OELWEIN        CLOUDY    50  37  62 N6        30.10R
$$

...ELSEWHERE IN IOWA...


CITY           SKY/WX    TMP DP  RH WIND       PRES   REMARKS
DES MOINES     PTCLDY    56  38  50 N12       30.09R
IOWA CITY      CLOUDY    51  38  60 NE7       30.09R
FORT DODGE     CLOUDY    52  36  54 N12G17    30.17R
$$

...NORTHERN ILLINOIS...


CITY           SKY/WX    TMP DP  RH WIND       PRES   REMARKS
CHICAGO-OHARE  CLOUDY    48  36  63 W5        30.06S
CHICAGO-MIDWAY CLOUDY    50  36  58 W6        30.06F
MOLINE         CLOUDY    47  39  74 E5        30.07S
ROCKFORD       CLOUDY    48  36  63 W5        30.09R
PEORIA         CLOUDY    47  43  86 NE3       30.08R
$$

NOTE: "FAIR" INDICATES FEW OR NO CLOUDS BELOW 12,000 FEET WITH NO
SIGNIFICANT WEATHER AND/OR OBSTRUCTIONS TO VISIBILITY. WIND
SPEEDS ARE IN MILES-PER-HOUR.



USA.gov is the U.S. government's official web portal to all federal, state and local government web resources and services.